sat.trackr.live / text

‹ back to catalog

STARLINK-2379

NORAD 47798 · 2021-018M

PAYLOAD ACTIVE UNKNOWN

§ Identity

Operator
Country
US
Launch date
2021-03-11
Launch site
AFETR
Launch vehicle
Mass (kg)
RCS (m²)

Purposes: comms

External: N2YO · Heavens-Above · Gunter

§ Orbital elements

Epoch: 2026-09-09T19:19:12.347328Z

Period
94.01 min
Inclination
53.1569°
Eccentricity
0.0001220
Mean motion
15.31713949 rev/d
Perigee alt
469.9 km
Apogee alt
471.5 km
Semi-major
6,848.8 km
B*
1.0682e-4
RAAN
102.3176°
Arg perigee
53.6058°
Mean anomaly
306.5056°
Rev number
30,497

§ Raw data

STARLINK-23791 47798U 21018M   26252.80500402  .00002952  00000+0  10682-3 0  99902 47798  53.1569 102.3176 0001220  53.6058 306.5056 15.31713949304979

JSON: /api/v1/satellites/47798 · /tle

For live sub-satellite position, see the globe view (requires WebGL).

§ Visibility from observer

Set your observer location to see the next 7 days of passes ≥ 10°. The values pass through the URL so the page stays shareable.

No JS? Fill the form by hand. The geolocation button needs JavaScript.